Flag Weather past 2 weeks in Bramsche, Lower Saxony, Germany

Now
41 °F

Passing clouds.


Feels Like: 41 °F
Forecast: 35 / 42 °F
Wind: 2 mph from East

Location: Muenster / Osnabrueck

Current Time: Nov 25, 2014 at 9:58:01 PM

Latest Report: Nov 25, 2014 at 9:00 PM


Visibility: 6 mi

Pressure: 30.24 "Hg

Humidity: 91%

Dew point: 38 °F

Location of BramscheLocation

Historic Weather in Bramsche — Graph

°F

Bramsche temperature yesterday

Maximum temperature yesterday: 53 °F (at 2:00 AM)
Minimum temperature yesterday: 35 °F (at 11:00 PM)
Average temperature yesterday: 46 °F

Past Weeks' High & Low Weather Summary

 TemperatureHumidityPressure
High57 °F (Nov 23, 1:00 PM)100% (Nov 13, 12:00 AM)30.37 "Hg (Nov 13, 12:00 AM)
Low30 °F (Nov 25, 8:00 AM)67% (Nov 24, 1:00 PM)29.47 "Hg (Nov 16, 1:00 PM)
Average46 °F88%29.95 "Hg
* Reported Nov 10 8:00 PM — Nov 25 8:00 PM, Bramsche, Weather by CustomWeather, © 2014

Note: Actual official high and low records may vary slightly from our data, if they occured in-between our weather recording intervals... More about our weather records

Advertising

Bramsche weather history for previous 24 hours

 ConditionsComfort  
Time TempWeatherWind HumidityBarometerVisibility
8:00 PM
Nov 25
40 °FPassing clouds.2 mph94%30.24 "Hg6 mi
7:00 PM41 °FPassing clouds.1 mph93%30.25 "Hg6 mi
6:00 PM42 °FPassing clouds.2 mph90%30.26 "Hg6 mi
5:00 PM44 °FOvercast.2 mph87%30.27 "Hg6 mi
4:00 PM44 °FPartly sunny.2 mph87%30.27 "Hg6 mi
3:00 PM46 °FPartly sunny.1 mph82%30.28 "Hg6 mi
2:00 PM46 °FPartly sunny.1 mph81%30.30 "Hg6 mi
1:00 PM45 °FScattered clouds.2 mph80%30.32 "Hg6 mi
12:00 PM43 °FPartly sunny.1 mph81%30.34 "Hg5 mi
11:00 AM39 °FPartly sunny.1 mph90%30.34 "Hg4 mi
10:00 AM34 °FFog.1 mph96%30.36 "Hg4 mi
9:00 AM33 °FFog.1 mph98%30.35 "Hg3 mi
8:00 AM30 °FFog.1 mph99%30.34 "Hg0 mi
7:00 AM32 °FFog.1 mph100%30.34 "Hg1 mi
6:00 AM31 °FFog.1 mph99%30.35 "Hg1 mi
5:00 AM32 °FFog.1 mph100%30.35 "Hg2 mi
4:00 AM31 °FFog.1 mph98%30.35 "Hg1 mi
3:00 AM32 °FChilly.1 mph99%30.35 "HgN/A
2:00 AM32 °FFog.No wind99%30.35 "Hg1 mi
1:00 AM33 °FFog.1 mph100%30.35 "Hg1 mi
12:00 AM34 °FFog.1 mph98%30.35 "Hg1 mi
11:00 PM
Nov 24
35 °FFog.1 mph100%30.35 "Hg1 mi
10:00 PM37 °FPassing clouds.1 mph97%30.35 "Hg19 mi
9:00 PM39 °FOvercast.1 mph95%30.35 "Hg19 mi
Weather by CustomWeather, © 2014

See weather overviewHow to use our weather pages